Temp
66 66 66 66 66 67 68 68 69 69 69 72 73 73 73 73 72 73 72 71 71 71 71 71 70 71 71 71 71 70 71 71 71 71 71 71 72 71 71 70 71 71 71 70 71 70 72 73 73 74 74 74 74 73 72 74 74 75 74 73 73 73 73
65 66 66 67 67 68 68 69 69 69 71 73 73 73 73 73 72 72 72 71 71 71 71 71 71 70 71 71 71 70 70 71 72 72 71 72 72 71 71 70 70 71 71 71 71 72 73 73 73 73 73 73 73 72 72 72 73 72 73 73 72 72 72
65 66 66 66 67 67 68 68 70 70 72 73 73 73 73 73 73 73 73 72 71 70 70 71 71 71 71 71 71 70 70 70 70 71 71 70 71 71 72 71 70 70 71 72 72 73 74 73 72 72 73 72 73 72 72 72 72 72 72 72 72 72 71
64 65 66 67 68 69 69 69 70 71 74 74 74 73 73 73 73 72 73 73 72 71 71 70 71 71 71 71 71 70 71 71 70 71 71 70 70 71 71 71 71 71 71 71 72 72 73 72 72 71 73 71 72 72 72 73 73 72 72 71 71 72 72
65 66 66 66 67 68 68 69 70 72 74 75 74 74 73 73 73 74 74 73 72 72 71 71 71 71 72 71 71 72 71 71 71 71 71 71 71 71 70 70 71 71 70 71 72 72 71 71 71 71 71 71 71 72 72 72 72 72 71 70 70 71 71
64 64 65 66 67 68 68 71 73 73 74 74 75 74 73 73 74 74 74 75 73 72 71 71 71 71 71 71 71 71 70 71 70 71 70 70 70 70 70 70 71 70 70 70 71 71 71 71 71 71 70 71 72 72 72 71 72 71 71 70 70 70 70
63 64 65 66 67 69 71 72 73 73 72 72 72 73 73 73 73 73 73 75 74 71 71 71 71 71 70 70 70 70 69 69 69 69 70 70 70 70 70 70 72 70 70 70 70 70 70 70 70 70 70 70 71 71 70 70 70 71 70 70 69 70 70
63 64 66 69 70 70 69 70 71 71 71 72 72 72 72 73 73 73 73 73 73 73 71 71 71 70 70 70 70 69 70 69 69 69 70 69 69 70 70 70 69 70 70 69 69 69 70 70 70 70 70 70 70 70 70 70 70 71 70 70 69 69 71
65 66 67 68 67 67 68 68 68 69 70 70 70 71 71 71 71 72 72 72 72 71 71 72 71 71 69 69 69 69 69 69 69 70 69 69 68 69 69 70 69 70 69 69 69 70 70 70 69 69 69 69 69 69 70 69 69 70 70 69 68 68 69
65 65 66 67 67 67 68 68 68 68 68 69 69 70 70 69 70 71 72 73 73 73 72 71 71 70 69 69 70 69 69 69 69 69 68 68 68 68 68 69 69 69 69 68 68 68 69 69 69 69 68 68 69 69 69 69 69 69 69 69 69 69 69
64 65 65 65 66 66 67 68 67 67 67 68 69 69 69 69 69 69 70 72 71 71 73 71 70 69 69 69 68 68 68 68 68 67 67 67 67 67 68 68 68 69 69 68 68 68 68 69 69 68 68 69 69 69 69 68 68 68 68 69 70 69 69
64 65 65 65 65 66 66 67 67 67 67 67 68 68 68 68 68 69 69 70 71 70 70 70 70 69 69 69 67 67 67 66 66 66 66 67 67 66 67 67 67 67 68 68 67 67 68 68 68 69 68 69 69 69 68 68 68 68 67 68 68 68 69
64 64 65 66 66 66 66 66 66 66 67 67 67 67 67 67 67 68 68 68 69 68 68 68 68 67 67 67 67 66 65 65 66 66 65 66 66 66 66 66 67 67 67 68 67 67 67 68 67 69 69 68 68 68 67 67 67 66 67 67 67 67 67
67 64 65 65 65 65 65 65 66 66 66 67 67 67 67 67 67 67 67 67 67 68 68 68 67 66 66 65 65 64 65 64 65 65 65 66 65 65 66 66 66 66 67 67 66 67 67 67 67 68 68 68 67 67 67 66 67 66 66 66 66 66 67
64 64 64 65 64 64 65 64 64 65 66 66 66 66 66 66 66 66 67 66 66 67 66 66 65 65 64 64 63 63 64 64 65 65 65 65 64 64 65 65 65 65 66 66 66 67 67 67 67 67 67 67 66 65 65 65 66 67 67 66 66 66 66
63 64 65 64 64 64 64 64 65 65 65 65 65 65 65 65 65 65 65 65 65 65 65 65 64 63 63 62 62 62 62 63 64 63 63 64 64 63 64 64 65 65 64 65 65 65 67 66 66 66 66 65 64 64 64 64 65 68 68 68 67 66 65
62 64 65 64 64 64 64 64 65 65 64 64 64 64 64 64 64 64 64 64 64 64 64 64 62 62 61 61 61 61 61 62 62 62 62 63 63 63 63 63 64 64 64 64 64 64 65 65 64 64 64 64 64 63 63 63 64 66 65 65 67 66 64
63 63 64 65 64 64 64 64 64 64 64 64 64 64 63 63 63 63 63 63 63 63 63 63 61 61 61 61 60 61 61 61 61 61 62 62 62 62 62 63 63 63 63 63 63 64 65 64 64 63 63 63 63 62 62 62 64 62 63 64 64 66 64
65 65 65 65 65 64 64 64 63 63 63 63 63 63 63 63 63 62 62 63 63 63 62 61 60 60 61 61 60 61 61 60 60 60 61 61 62 62 62 62 62 62 62 62 64 64 63 63 63 63 63 62 61 60 61 60 63 61 62 62 62 63 63
66 65 66 66 65 65 64 64 63 64 64 63 63 64 63 64 64 63 63 63 62 61 60 60 60 59 60 60 60 60 60 60 60 60 61 61 61 61 61 61 61 62 62 63 63 62 62 63 63 63 62 61 60 59 59 59 62 61 61 60 61 61 60
65 64 64 64 64 64 64 63 63 62 63 63 64 63 63 62 62 62 62 61 61 60 60 60 59 59 59 59 60 60 60 60 59 60 61 61 61 60 60 60 61 61 62 62 62 61 61 61 61 62 62 61 60 59 58 59 60 60 60 59 59 60 59
65 65 64 64 64 63 63 64 63 62 62 64 63 63 62 61 61 61 60 60 60 60 59 59 59 59 59 59 59 60 60 59 59 60 60 61 60 60 60 60 60 60 62 62 60 61 61 61 61 60 60 60 59 58 57 59 60 59 59 59 58 60 56
69 67 66 66 66 64 64 64 63 63 63 62 62 62 61 60 61 60 60 59 59 59 59 58 58 58 58 59 59 60 60 59 59 59 60 60 59 59 59 59 60 60 61 59 59 58 59 59 59 59 58 59 60 57 56 58 59 59 58 57 57 58 54
70 69 69 68 67 66 65 64 65 64 63 62 62 60 60 60 60 59 59 59 58 58 58 57 58 58 59 59 59 59 59 60 59 58 59 58 58 58 59 59 59 59 61 57 57 57 57 58 57 57 58 58 56 58 55 56 60 58 57 56 57 59 55
70 70 69 68 67 66 65 65 65 64 63 61 61 60 60 59 59 59 58 58 57 57 57 57 58 58 58 59 59 60 60 59 60 58 58 58 58 59 58 58 59 59 58 57 56 56 56 60 55 55 55 56 57 62 56 54 58 59 56 56 56 57 56
67 68 68 68 67 67 66 66 65 64 63 62 60 60 60 59 59 60 60 58 56 57 57 58 59 58 58 59 59 60 61 59 60 59 59 58 58 58 58 59 58 57 57 56 56 56 54 56 56 54 54 55 55 56 55 55 55 59 56 56 56 57 56
67 68 67 67 67 68 65 64 64 63 63 60 61 60 59 59 58 58 58 58 55 57 58 58 58 58 58 59 59 59 59 59 59 58 60 61 59 59 59 58 56 56 55 55 55 54 54 53 54 54 54 54 55 55 54 58 56 57 57 56 55 56 56
67 67 68 68 68 66 64 64 62 61 62 61 61 61 58 58 60 59 58 56 56 57 58 58 57 58 57 59 58 59 58 58 59 60 62 61 58 56 56 57 56 57 55 54 53 52 53 53 55 53 53 54 54 55 53 56 60 56 58 56 55 54 55
64 64 63 63 63 65 65 62 60 61 61 61 61 60 59 59 60 58 59 55 58 57 58 59 58 57 58 58 58 58 59 58 59 59 62 61 60 57 56 57 55 55 55 53 53 52 51 52 52 51 51 51 51 52 53 53 56 59 57 57 55 54 54
63 63 64 65 64 64 64 61 60 59 61 61 61 59 59 59 59 58 58 57 58 56 59 58 57 57 58 58 57 57 58 58 59 59 59 61 60 59 56 55 56 56 56 53 52 52 51 50 53 50 50 50 50 51 52 52 52 55 58 56 55 54 53
63 63 63 63 63 63 62 61 59 59 60 60 59 58 57 57 58 59 59 58 57 58 58 58 58 58 57 55 55 56 56 56 57 58 58 58 58 58 57 55 54 53 52 52 51 51 50 50 53 51 51 49 50 49 50 50 51 50 55 57 56 55 53
61 62 62 62 62 62 61 59 58 57 58 59 58 58 59 59 57 58 59 58 59 59 58 59 57 58 57 56 56 55 54 55 56 56 56 57 56 57 56 55 57 56 53 52 51 50 51 51 52 51 51 50 48 48 49 50 49 49 50 55 55 55 54
61 61 61 61 61 63 60 59 58 58 59 59 58 57 58 58 58 58 57 59 59 59 58 58 58 57 56 54 55 55 54 54 56 55 55 54 54 55 56 57 54 56 57 54 50 49 52 52 52 51 50 49 48 48 49 49 48 48 49 50 49 50 51
60 59 60 61 61 60 58 57 57 58 58 59 58 57 57 58 57 57 58 58 58 58 57 58 58 55 55 55 54 56 56 55 63 59 54 54 53 53 55 55 56 54 54 53 52 49 49 50 50 50 50 48 48 47 47 48 48 49 48 49 49 48 48
60 60 60 59 59 59 57 57 57 58 59 59 58 57 57 57 57 57 57 58 57 57 57 57 58 56 55 54 54 54 57 57 56 55 55 53 55 55 54 54 56 55 53 52 50 51 52 49 49 52 48 48 47 46 48 49 48 51 53 50 49 48 46
60 60 60 61 61 58 58 59 57 58 59 58 57 57 58 57 57 57 59 58 58 56 58 58 57 55 53 55 54 54 57 57 55 56 55 54 53 54 56 63 58 55 55 54 61 58 55 54 52 52 51 48 49 49 48 47 51 52 47 45 44 45 45
59 60 59 61 60 58 57 57 60 58 59 59 59 58 58 58 57 57 59 58 57 56 55 55 57 56 54 55 54 57 58 56 54 56 54 54 52 53 54 56 57 51 52 56 60 52 47 47 49 50 53 53 49 52 55 54 51 46 45 44 44 43 43
61 62 62 62 60 58 58 58 59 58 59 59 59 58 56 57 57 57 58 57 57 55 54 55 56 55 54 54 54 57 56 55 54 56 55 54 52 52 53 52 51 53 52 49 51 50 46 46 47 46 46 48 50 51 50 51 49 46 44 44 44 43 43
MSLP
1018.57 1018.93 1019.13 1019.17 1019.25 1019.05 1018.93 1018.81 1018.61 1018.49 1018.05 1017.73 1017.57 1017.57 1017.69 1017.77 1017.81 1017.81 1018.01 1018.13 1018.29 1018.33 1018.17 1017.97 1017.85 1017.65 1017.57 1017.49 1017.41 1017.33 1017.25 1017.17 1017.05 1017.05 1016.97 1016.85 1016.65 1016.57 1016.49 1016.25 1016.13 1015.93 1015.73 1015.69 1015.45 1015.17 1014.81 1014.41 1014.29 1014.05 1013.85 1013.65 1013.53 1013.33 1013.17 1012.93 1012.77 1012.61 1012.49 1012.41 1012.45 1012.49 1012.45
1019.25 1019.21 1019.13 1018.97 1019.05 1018.89 1018.53 1018.49 1018.37 1018.29 1018.05 1017.73 1017.57 1017.57 1017.61 1017.73 1017.77 1017.85 1017.89 1017.93 1018.05 1018.09 1018.05 1017.89 1017.77 1017.69 1017.57 1017.49 1017.37 1017.33 1017.33 1017.25 1017.09 1016.97 1016.89 1016.85 1016.61 1016.49 1016.37 1016.29 1016.17 1015.97 1015.73 1015.53 1015.29 1015.01 1014.77 1014.57 1014.37 1014.21 1013.97 1013.73 1013.57 1013.33 1013.17 1012.97 1012.81 1012.73 1012.61 1012.45 1012.45 1012.41 1012.29
1019.37 1019.37 1019.13 1018.97 1019.01 1018.81 1018.41 1018.25 1018.21 1018.05 1017.93 1017.61 1017.45 1017.53 1017.65 1017.69 1017.61 1017.65 1017.69 1017.81 1017.97 1018.01 1017.97 1017.89 1017.77 1017.65 1017.53 1017.45 1017.41 1017.37 1017.33 1017.25 1017.17 1017.05 1017.05 1017.01 1016.81 1016.61 1016.41 1016.29 1016.17 1016.01 1015.73 1015.45 1015.25 1015.13 1014.77 1014.69 1014.41 1014.25 1014.05 1013.89 1013.65 1013.41 1013.21 1013.01 1012.81 1012.65 1012.53 1012.41 1012.37 1012.33 1012.21
1019.41 1019.21 1019.01 1018.73 1018.65 1018.61 1018.37 1018.33 1018.25 1018.01 1017.61 1017.33 1017.45 1017.61 1017.69 1017.61 1017.45 1017.41 1017.49 1017.61 1017.93 1018.09 1018.21 1018.05 1017.89 1017.77 1017.65 1017.61 1017.49 1017.49 1017.45 1017.29 1017.17 1017.13 1017.01 1016.89 1016.81 1016.61 1016.57 1016.41 1016.21 1016.01 1015.85 1015.65 1015.33 1015.09 1014.93 1014.73 1014.57 1014.33 1014.09 1014.01 1013.77 1013.49 1013.25 1013.13 1012.89 1012.69 1012.53 1012.41 1012.37 1012.21 1012.13
1019.01 1018.69 1018.61 1018.69 1018.61 1018.53 1018.49 1018.41 1018.33 1018.01 1017.77 1017.77 1017.77 1017.77 1017.77 1017.73 1017.61 1017.57 1017.53 1017.65 1017.77 1018.09 1018.09 1018.09 1017.93 1017.77 1017.65 1017.53 1017.53 1017.49 1017.53 1017.41 1017.29 1017.13 1017.01 1016.85 1016.69 1016.65 1016.65 1016.57 1016.37 1016.17 1015.97 1015.61 1015.33 1015.13 1014.97 1014.81 1014.65 1014.45 1014.25 1014.01 1013.85 1013.61 1013.41 1013.17 1013.01 1012.77 1012.61 1012.49 1012.45 1012.21 1012.09
1019.33 1018.97 1018.77 1018.65 1018.65 1018.61 1018.49 1018.33 1018.25 1018.21 1018.13 1018.17 1018.17 1018.13 1018.05 1017.93 1017.69 1017.69 1017.65 1017.77 1018.05 1018.01 1018.05 1018.05 1018.01 1017.89 1017.85 1017.69 1017.61 1017.61 1017.49 1017.37 1017.29 1017.17 1017.09 1016.93 1016.85 1016.77 1016.69 1016.57 1016.37 1016.21 1016.05 1015.81 1015.45 1015.21 1014.97 1014.81 1014.65 1014.49 1014.37 1014.09 1013.89 1013.69 1013.45 1013.29 1013.05 1012.85 1012.69 1012.53 1012.41 1012.29 1012.17
1019.33 1019.01 1018.73 1018.53 1018.53 1018.69 1018.73 1018.69 1018.57 1018.45 1018.41 1018.41 1018.29 1018.17 1018.05 1017.97 1018.01 1018.01 1017.93 1018.09 1018.13 1018.33 1018.29 1018.25 1018.17 1017.97 1017.93 1017.77 1017.73 1017.69 1017.73 1017.65 1017.45 1017.33 1017.09 1016.97 1016.85 1016.85 1016.73 1016.57 1016.37 1016.21 1016.01 1015.73 1015.57 1015.29 1015.13 1014.89 1014.69 1014.45 1014.29 1014.13 1013.93 1013.81 1013.61 1013.37 1013.17 1012.89 1012.77 1012.61 1012.53 1012.33 1012.17
1019.33 1019.09 1018.81 1018.73 1018.81 1018.89 1019.13 1019.09 1019.01 1018.93 1018.81 1018.57 1018.37 1018.25 1018.25 1018.17 1018.17 1018.25 1018.33 1018.29 1018.29 1018.29 1018.37 1018.37 1018.29 1018.13 1018.05 1017.93 1017.89 1017.93 1017.89 1017.77 1017.53 1017.33 1017.17 1017.09 1017.01 1016.97 1016.81 1016.65 1016.49 1016.25 1016.01 1015.93 1015.61 1015.33 1015.17 1014.93 1014.69 1014.45 1014.21 1014.09 1013.93 1013.77 1013.61 1013.41 1013.21 1012.93 1012.81 1012.77 1012.61 1012.41 1012.21
1019.29 1019.09 1019.17 1019.13 1019.09 1019.13 1019.17 1019.13 1019.17 1019.13 1019.01 1018.93 1018.69 1018.41 1018.29 1018.37 1018.49 1018.57 1018.57 1018.49 1018.45 1018.49 1018.53 1018.33 1018.29 1018.21 1018.17 1018.17 1018.17 1018.17 1018.05 1017.89 1017.77 1017.57 1017.49 1017.41 1017.29 1017.21 1016.97 1016.77 1016.53 1016.25 1016.17 1016.01 1015.73 1015.37 1015.17 1014.97 1014.69 1014.49 1014.29 1014.13 1013.93 1013.77 1013.61 1013.49 1013.37 1013.13 1012.97 1012.85 1012.73 1012.61 1012.41
1019.57 1019.53 1019.41 1019.13 1018.93 1018.97 1019.09 1019.05 1019.09 1019.37 1019.69 1019.29 1018.89 1018.65 1018.65 1018.73 1018.77 1018.73 1018.73 1018.69 1018.53 1018.57 1018.49 1018.41 1018.41 1018.37 1018.37 1018.41 1018.45 1018.37 1018.25 1018.21 1018.05 1017.93 1017.85 1017.77 1017.61 1017.49 1017.21 1016.93 1016.65 1016.33 1016.17 1015.97 1015.73 1015.57 1015.21 1014.93 1014.73 1014.53 1014.37 1014.21 1014.01 1013.85 1013.77 1013.65 1013.53 1013.37 1013.13 1013.05 1012.93 1012.81 1012.65
1019.77 1019.73 1019.61 1019.29 1019.13 1019.33 1019.49 1019.45 1019.53 1019.73 1019.73 1019.21 1018.97 1018.85 1018.85 1018.97 1019.01 1018.97 1018.93 1018.81 1018.85 1018.81 1018.69 1018.65 1018.61 1018.69 1018.69 1018.69 1018.73 1018.61 1018.53 1018.45 1018.29 1018.25 1018.13 1018.01 1017.81 1017.65 1017.33 1017.05 1016.77 1016.45 1016.25 1016.05 1015.81 1015.57 1015.33 1015.05 1014.77 1014.61 1014.45 1014.37 1014.21 1014.13 1014.01 1013.93 1013.77 1013.65 1013.49 1013.29 1013.05 1012.93 1012.77
1019.93 1019.81 1019.77 1019.69 1019.45 1019.45 1019.77 1019.81 1019.97 1020.01 1019.65 1019.37 1019.29 1019.21 1019.21 1019.25 1019.25 1019.25 1019.17 1019.13 1019.01 1019.09 1019.01 1019.01 1018.89 1018.97 1019.01 1018.97 1019.01 1019.01 1018.93 1018.81 1018.69 1018.57 1018.41 1018.13 1017.93 1017.69 1017.45 1017.17 1016.89 1016.65 1016.37 1016.13 1015.97 1015.69 1015.37 1015.21 1014.93 1014.73 1014.57 1014.45 1014.41 1014.29 1014.25 1014.13 1014.01 1013.93 1013.77 1013.57 1013.37 1013.13 1012.89
1019.93 1019.85 1019.81 1019.61 1019.57 1019.53 1019.61 1019.89 1020.13 1019.97 1019.69 1019.53 1019.45 1019.41 1019.45 1019.45 1019.49 1019.45 1019.45 1019.41 1019.33 1019.29 1019.25 1019.21 1019.21 1019.25 1019.25 1019.25 1019.29 1019.29 1019.21 1019.05 1018.89 1018.65 1018.45 1018.21 1017.97 1017.73 1017.49 1017.29 1017.01 1016.77 1016.57 1016.21 1016.01 1015.81 1015.57 1015.29 1015.09 1014.81 1014.69 1014.65 1014.57 1014.57 1014.49 1014.37 1014.21 1014.13 1013.97 1013.77 1013.57 1013.41 1013.21
1019.77 1019.81 1019.85 1019.73 1019.81 1019.89 1020.01 1019.97 1019.85 1019.73 1019.61 1019.49 1019.57 1019.49 1019.53 1019.57 1019.61 1019.69 1019.69 1019.73 1019.61 1019.45 1019.49 1019.49 1019.49 1019.57 1019.57 1019.57 1019.61 1019.57 1019.41 1019.21 1018.93 1018.73 1018.53 1018.25 1018.05 1017.85 1017.65 1017.41 1017.17 1016.93 1016.65 1016.33 1016.13 1015.89 1015.69 1015.49 1015.29 1015.05 1014.89 1014.85 1014.89 1014.85 1014.69 1014.61 1014.45 1014.29 1014.13 1014.01 1013.77 1013.53 1013.33
1020.05 1019.97 1019.77 1019.65 1019.61 1019.65 1019.73 1019.85 1019.81 1019.77 1019.73 1019.73 1019.69 1019.81 1019.85 1019.85 1019.77 1019.73 1019.77 1019.77 1019.81 1019.77 1019.85 1019.77 1019.77 1019.81 1019.81 1019.81 1019.77 1019.65 1019.41 1019.21 1018.97 1018.73 1018.57 1018.37 1018.17 1017.97 1017.77 1017.53 1017.29 1017.05 1016.81 1016.57 1016.33 1016.01 1015.81 1015.61 1015.45 1015.33 1015.25 1015.21 1015.29 1015.25 1015.09 1014.97 1014.81 1014.57 1014.41 1014.21 1013.89 1013.61 1013.45
1019.97 1019.89 1019.81 1019.77 1019.61 1019.53 1019.61 1019.73 1019.77 1019.81 1019.89 1020.01 1020.05 1020.09 1020.13 1020.13 1020.09 1020.05 1020.09 1020.09 1020.01 1020.01 1019.97 1019.85 1019.97 1019.97 1020.01 1019.97 1019.85 1019.65 1019.49 1019.29 1019.13 1018.93 1018.69 1018.53 1018.33 1018.13 1017.89 1017.61 1017.37 1017.13 1016.93 1016.69 1016.45 1016.21 1015.97 1015.85 1015.69 1015.61 1015.61 1015.65 1015.69 1015.61 1015.49 1015.41 1015.25 1015.05 1014.73 1014.45 1014.17 1013.85 1013.65
1019.85 1019.81 1019.69 1019.57 1019.57 1019.65 1019.73 1019.81 1019.93 1020.09 1020.21 1020.37 1020.37 1020.33 1020.29 1020.25 1020.21 1020.17 1020.21 1020.21 1020.17 1020.17 1020.09 1020.01 1020.09 1020.05 1020.05 1020.01 1019.81 1019.65 1019.49 1019.41 1019.25 1019.01 1018.89 1018.69 1018.49 1018.29 1018.05 1017.81 1017.53 1017.33 1017.09 1016.85 1016.61 1016.45 1016.25 1016.09 1016.05 1016.01 1016.05 1016.05 1016.01 1016.01 1015.97 1015.89 1015.77 1015.45 1015.21 1014.89 1014.49 1014.09 1013.97
1019.77 1019.77 1019.77 1019.77 1019.81 1019.81 1019.97 1020.17 1020.33 1020.41 1020.53 1020.53 1020.49 1020.45 1020.37 1020.37 1020.33 1020.33 1020.45 1020.37 1020.33 1020.29 1020.13 1020.09 1020.09 1020.05 1020.05 1019.97 1019.81 1019.65 1019.53 1019.45 1019.29 1019.09 1018.93 1018.73 1018.57 1018.37 1018.17 1017.93 1017.69 1017.53 1017.29 1017.09 1016.89 1016.69 1016.49 1016.41 1016.41 1016.41 1016.33 1016.33 1016.33 1016.37 1016.33 1016.33 1016.17 1015.89 1015.57 1015.21 1014.89 1014.49 1014.21
1019.57 1019.49 1019.57 1019.77 1019.89 1020.13 1020.25 1020.41 1020.49 1020.53 1020.61 1020.61 1020.57 1020.49 1020.37 1020.29 1020.37 1020.49 1020.49 1020.45 1020.37 1020.21 1020.21 1020.21 1020.17 1020.09 1020.01 1019.89 1019.81 1019.65 1019.53 1019.37 1019.29 1019.13 1018.93 1018.77 1018.57 1018.41 1018.21 1018.05 1017.85 1017.69 1017.45 1017.29 1017.09 1016.89 1016.81 1016.73 1016.57 1016.61 1016.61 1016.61 1016.65 1016.73 1016.69 1016.65 1016.41 1016.17 1015.85 1015.61 1015.25 1014.89 1014.53
1019.13 1019.25 1019.49 1019.69 1019.89 1020.09 1020.29 1020.37 1020.45 1020.45 1020.41 1020.45 1020.41 1020.37 1020.37 1020.29 1020.37 1020.49 1020.41 1020.37 1020.33 1020.29 1020.29 1020.29 1020.25 1020.21 1020.09 1019.89 1019.77 1019.65 1019.53 1019.37 1019.25 1019.09 1018.93 1018.77 1018.57 1018.45 1018.33 1018.21 1018.09 1017.89 1017.65 1017.49 1017.33 1017.25 1017.13 1016.97 1016.85 1016.73 1016.81 1016.89 1016.93 1017.01 1017.01 1016.85 1016.65 1016.37 1016.13 1015.89 1015.57 1015.25 1015.05
1019.37 1019.49 1019.73 1019.97 1020.09 1020.21 1020.33 1020.37 1020.41 1020.45 1020.53 1020.49 1020.41 1020.41 1020.33 1020.41 1020.41 1020.45 1020.49 1020.49 1020.45 1020.41 1020.33 1020.33 1020.33 1020.21 1020.09 1019.93 1019.77 1019.61 1019.45 1019.37 1019.21 1019.05 1018.93 1018.81 1018.69 1018.61 1018.49 1018.41 1018.29 1018.13 1017.93 1017.81 1017.69 1017.57 1017.49 1017.33 1017.25 1017.05 1017.05 1017.13 1017.13 1017.17 1017.21 1017.09 1016.81 1016.49 1016.25 1016.09 1015.85 1015.53 1015.41
1019.49 1019.65 1019.85 1019.81 1019.93 1020.25 1020.25 1020.13 1020.29 1020.53 1020.61 1020.37 1020.29 1020.33 1020.37 1020.49 1020.37 1020.45 1020.69 1020.53 1020.49 1020.41 1020.37 1020.37 1020.29 1020.21 1020.05 1019.93 1019.77 1019.61 1019.45 1019.37 1019.21 1019.05 1018.97 1018.89 1018.85 1018.77 1018.73 1018.61 1018.53 1018.41 1018.25 1018.09 1018.01 1017.85 1017.69 1017.61 1017.45 1017.45 1017.33 1017.29 1017.33 1017.37 1017.37 1017.13 1016.85 1016.61 1016.45 1016.33 1016.05 1015.61 1015.57
1019.21 1019.45 1019.53 1019.69 1019.65 1019.97 1019.97 1020.17 1020.41 1020.49 1020.41 1020.41 1020.37 1020.45 1020.57 1020.53 1020.45 1020.57 1020.69 1020.65 1020.57 1020.49 1020.49 1020.41 1020.33 1020.25 1020.09 1019.93 1019.73 1019.61 1019.45 1019.37 1019.21 1019.13 1019.09 1019.05 1019.01 1018.97 1018.89 1018.81 1018.69 1018.57 1018.41 1018.41 1018.29 1018.17 1018.01 1017.89 1017.77 1017.69 1017.69 1017.61 1017.49 1017.45 1017.41 1017.21 1016.97 1016.81 1016.69 1016.49 1016.17 1015.65 1015.61
1019.05 1019.21 1019.37 1019.65 1019.77 1019.93 1020.17 1020.29 1020.37 1020.45 1020.49 1020.57 1020.65 1020.65 1020.65 1020.61 1020.61 1020.77 1020.85 1020.81 1020.69 1020.65 1020.61 1020.49 1020.41 1020.25 1020.09 1019.89 1019.77 1019.61 1019.49 1019.33 1019.17 1019.25 1019.21 1019.21 1019.21 1019.13 1019.01 1018.89 1018.77 1018.69 1018.57 1018.57 1018.49 1018.33 1018.17 1018.05 1018.01 1017.89 1017.81 1017.77 1017.65 1017.41 1017.49 1017.29 1016.97 1016.93 1016.81 1016.65 1016.37 1015.89 1015.73
1019.53 1019.61 1019.65 1019.73 1019.85 1020.17 1020.41 1020.53 1020.61 1020.69 1020.69 1020.77 1020.93 1020.85 1020.73 1020.73 1020.73 1020.89 1020.97 1020.85 1020.81 1020.81 1020.73 1020.65 1020.45 1020.29 1020.13 1019.89 1019.77 1019.57 1019.41 1019.25 1019.09 1019.25 1019.29 1019.33 1019.29 1019.21 1019.13 1019.01 1018.89 1018.81 1018.69 1018.61 1018.57 1018.45 1018.33 1018.13 1018.17 1018.05 1017.93 1017.81 1017.73 1017.49 1017.45 1017.41 1017.09 1016.89 1016.89 1016.77 1016.53 1016.17 1015.85
1020.01 1020.05 1020.13 1020.09 1020.09 1020.17 1020.41 1020.57 1020.73 1020.89 1021.01 1021.05 1021.05 1020.85 1020.81 1020.85 1020.89 1020.97 1021.01 1021.01 1020.97 1020.93 1020.85 1020.65 1020.41 1020.25 1020.05 1019.85 1019.73 1019.57 1019.33 1019.21 1019.13 1019.29 1019.33 1019.37 1019.33 1019.25 1019.17 1019.05 1018.97 1018.93 1018.85 1018.77 1018.69 1018.57 1018.49 1018.41 1018.29 1018.25 1018.09 1017.97 1017.89 1017.81 1017.61 1017.41 1017.25 1016.97 1016.97 1016.85 1016.61 1016.33 1016.01
1019.97 1019.97 1020.21 1020.25 1020.41 1020.37 1020.65 1020.77 1020.85 1020.97 1021.01 1021.01 1020.93 1020.85 1020.81 1020.85 1020.93 1021.01 1021.01 1021.01 1021.09 1020.97 1020.69 1020.45 1020.29 1020.13 1020.01 1019.93 1019.69 1019.49 1019.37 1019.29 1019.21 1019.29 1019.29 1019.29 1019.29 1019.25 1019.21 1019.17 1019.13 1019.01 1018.93 1018.85 1018.77 1018.69 1018.65 1018.57 1018.41 1018.37 1018.25 1018.13 1018.05 1017.93 1017.81 1017.45 1017.29 1017.13 1016.97 1016.89 1016.69 1016.41 1016.17
1020.13 1020.13 1020.17 1020.21 1020.33 1020.53 1020.77 1020.93 1021.05 1021.09 1021.09 1021.05 1020.97 1020.85 1020.85 1020.89 1020.97 1021.01 1021.09 1021.09 1021.01 1020.73 1020.41 1020.29 1020.25 1020.13 1020.05 1019.93 1019.73 1019.65 1019.53 1019.41 1019.25 1019.17 1019.25 1019.29 1019.29 1019.33 1019.29 1019.21 1019.13 1019.09 1019.01 1018.93 1018.89 1018.85 1018.81 1018.73 1018.61 1018.53 1018.49 1018.37 1018.25 1018.13 1018.01 1017.73 1017.37 1017.25 1017.05 1016.93 1016.73 1016.49 1016.21
1020.41 1020.57 1020.73 1020.77 1020.81 1020.65 1020.69 1021.01 1021.13 1021.09 1021.13 1021.09 1021.01 1020.93 1020.89 1020.97 1021.09 1021.05 1021.09 1021.09 1020.81 1020.53 1020.41 1020.25 1020.21 1020.13 1020.09 1019.97 1019.85 1019.77 1019.65 1019.57 1019.45 1019.37 1019.29 1019.33 1019.33 1019.29 1019.29 1019.21 1019.17 1019.13 1019.05 1019.05 1019.01 1018.97 1018.93 1018.89 1018.77 1018.73 1018.69 1018.57 1018.45 1018.29 1018.09 1017.85 1017.61 1017.29 1017.17 1016.97 1016.81 1016.57 1016.29
1020.53 1020.49 1020.57 1020.61 1020.65 1020.73 1020.73 1021.01 1021.13 1021.21 1021.21 1021.13 1021.01 1020.93 1020.85 1020.97 1021.13 1021.01 1021.05 1020.97 1020.65 1020.49 1020.37 1020.25 1020.13 1020.09 1020.21 1020.05 1020.01 1019.89 1019.85 1019.77 1019.57 1019.49 1019.41 1019.33 1019.29 1019.25 1019.25 1019.21 1019.17 1019.13 1019.13 1019.09 1019.09 1019.09 1019.09 1019.01 1018.89 1018.85 1018.81 1018.73 1018.61 1018.37 1018.13 1017.89 1017.77 1017.53 1017.25 1017.05 1016.85 1016.65 1016.37
1020.53 1020.57 1020.57 1020.69 1020.81 1020.81 1020.93 1021.13 1021.33 1021.33 1021.29 1021.17 1021.05 1020.93 1020.93 1020.97 1021.13 1021.01 1021.09 1020.69 1020.49 1020.45 1020.37 1020.21 1020.17 1020.25 1020.21 1020.17 1020.13 1020.05 1020.01 1019.93 1019.73 1019.61 1019.41 1019.29 1019.21 1019.25 1019.21 1019.13 1019.13 1019.17 1019.13 1019.13 1019.13 1019.17 1019.21 1019.13 1018.93 1018.93 1018.89 1018.81 1018.73 1018.53 1018.25 1018.01 1017.85 1017.73 1017.41 1017.13 1016.93 1016.69 1016.49
1020.69 1020.61 1020.65 1020.65 1020.81 1020.93 1021.13 1021.17 1021.25 1021.33 1021.33 1021.25 1021.13 1021.05 1020.97 1020.93 1020.97 1021.01 1020.81 1020.49 1020.45 1020.41 1020.29 1020.17 1020.33 1020.41 1020.25 1020.25 1020.21 1020.13 1020.09 1019.97 1019.81 1019.61 1019.45 1019.37 1019.29 1019.25 1019.17 1019.05 1019.05 1019.09 1019.09 1019.05 1019.13 1019.25 1019.33 1019.17 1018.97 1018.93 1018.89 1018.85 1018.77 1018.61 1018.41 1018.13 1018.01 1017.81 1017.57 1017.29 1017.05 1016.89 1016.65
1020.81 1020.81 1020.81 1020.89 1020.89 1020.93 1021.17 1021.33 1021.45 1021.45 1021.41 1021.45 1021.13 1021.05 1021.01 1020.89 1020.69 1020.69 1020.61 1020.53 1020.41 1020.37 1020.29 1020.29 1020.49 1020.49 1020.33 1020.33 1020.29 1020.17 1020.09 1020.01 1019.85 1019.69 1019.57 1019.45 1019.33 1019.21 1019.13 1019.05 1019.01 1019.01 1018.97 1018.97 1019.01 1019.21 1019.33 1019.17 1019.01 1018.93 1018.89 1018.85 1018.73 1018.57 1018.41 1018.21 1018.05 1017.85 1017.61 1017.41 1017.33 1017.13 1016.89
1020.81 1021.01 1020.81 1020.73 1020.81 1020.89 1021.21 1021.41 1021.53 1021.49 1021.45 1021.45 1021.21 1021.05 1021.05 1020.89 1020.73 1020.57 1020.61 1020.61 1020.49 1020.41 1020.41 1020.53 1020.57 1020.53 1020.45 1020.37 1020.29 1020.21 1020.17 1020.05 1019.81 1019.69 1019.61 1019.41 1019.41 1019.37 1019.13 1018.93 1018.89 1018.89 1018.89 1018.85 1018.85 1019.17 1019.33 1019.05 1018.85 1018.81 1018.81 1018.77 1018.69 1018.61 1018.41 1018.25 1018.05 1017.77 1017.73 1017.57 1017.49 1017.37 1016.97
1020.53 1020.65 1020.77 1020.93 1020.97 1021.05 1021.33 1021.45 1021.57 1021.49 1021.41 1021.37 1021.17 1021.09 1021.01 1020.89 1020.77 1020.69 1020.69 1020.65 1020.57 1020.61 1020.57 1020.65 1020.57 1020.49 1020.37 1020.29 1020.25 1020.21 1020.13 1020.05 1019.93 1019.81 1019.73 1019.49 1019.33 1019.21 1019.09 1018.97 1018.81 1018.77 1018.77 1018.69 1018.77 1018.89 1019.05 1018.93 1018.73 1018.57 1018.57 1018.73 1018.69 1018.65 1018.45 1018.25 1018.13 1017.73 1017.57 1017.65 1017.49 1017.57 1017.01
1020.61 1020.77 1020.85 1020.85 1020.97 1021.05 1021.25 1021.45 1021.49 1021.37 1021.25 1021.21 1021.01 1021.01 1020.97 1020.89 1020.81 1020.73 1020.61 1020.53 1020.57 1020.61 1020.61 1020.65 1020.61 1020.53 1020.41 1020.29 1020.29 1020.21 1020.13 1020.05 1019.89 1019.69 1019.65 1019.57 1019.45 1019.25 1018.93 1018.61 1018.69 1018.69 1018.61 1018.53 1018.49 1018.69 1018.73 1018.65 1018.53 1018.41 1018.49 1018.49 1018.45 1018.49 1018.49 1018.33 1018.05 1017.81 1017.61 1017.41 1017.21 1017.13 1016.89
1020.73 1020.97 1020.97 1021.05 1021.09 1021.25 1021.37 1021.41 1021.33 1021.25 1021.13 1020.97 1020.81 1020.85 1020.89 1020.85 1020.81 1020.77 1020.61 1020.53 1020.57 1020.61 1020.57 1020.57 1020.57 1020.45 1020.37 1020.33 1020.33 1020.21 1020.09 1019.97 1019.89 1019.73 1019.65 1019.57 1019.41 1019.21 1019.13 1019.01 1018.69 1018.65 1018.61 1018.57 1018.73 1018.81 1018.81 1018.69 1018.53 1018.49 1018.49 1018.65 1018.45 1018.13 1018.05 1018.01 1017.97 1017.93 1017.65 1017.25 1017.05 1016.97 1016.89
1020.33 1020.49 1020.73 1020.93 1021.01 1021.25 1021.37 1021.37 1021.29 1021.21 1021.05 1020.89 1020.77 1020.81 1020.89 1020.77 1020.69 1020.73 1020.65 1020.57 1020.53 1020.57 1020.57 1020.53 1020.45 1020.41 1020.41 1020.37 1020.29 1020.09 1019.89 1019.85 1019.85 1019.73 1019.65 1019.49 1019.33 1019.21 1019.17 1019.13 1019.01 1018.73 1018.53 1018.61 1018.81 1018.85 1018.81 1018.69 1018.61 1018.49 1018.41 1018.41 1018.61 1018.61 1018.13 1017.73 1017.69 1017.69 1017.57 1017.21 1016.85 1016.85 1016.85
Wind_Speed
2 4 4 5 5 5 5 4 2 2 2 5 7 8 8 7 6 6 6 5 4 4 3 4 4 4 5 5 4 4 4 4 3 4 4 4 4 4 4 4 3 4 5 5 6 5 5 5 5 6 5 5 5 5 5 5 5 6 4 3 4 4 5
5 4 4 4 4 3 3 2 3 2 2 5 7 7 6 6 5 5 5 5 4 4 3 4 4 4 4 4 3 4 4 4 3 3 3 4 4 4 3 3 3 3 4 5 5 6 6 6 5 5 5 6 6 5 5 5 5 5 5 4 4 5 4
2 2 3 4 3 2 2 2 1 1 1 4 5 5 6 5 5 5 5 4 4 4 3 4 4 5 4 5 4 4 4 4 4 5 4 4 4 5 4 4 3 4 4 4 4 5 4 6 5 6 5 6 7 7 6 6 6 6 5 4 4 5 5
1 3 3 2 1 0 1 1 2 3 2 5 5 4 4 4 3 3 4 5 5 4 4 3 4 5 5 5 4 4 5 4 4 5 5 4 4 4 5 5 5 5 6 5 4 3 4 4 5 6 6 6 7 7 7 7 7 6 6 5 5 5 5
1 2 3 3 1 1 2 2 3 3 3 5 6 5 4 4 4 3 2 2 4 6 4 3 4 4 6 5 4 3 4 5 6 6 5 5 5 4 4 5 5 6 5 5 5 5 5 5 5 5 6 6 6 6 7 7 7 6 6 5 5 5 5
0 1 1 1 2 2 1 1 3 6 8 7 7 6 5 4 5 7 6 5 4 3 3 5 6 6 6 5 5 5 4 5 5 5 5 5 4 5 5 5 5 6 5 5 5 5 5 5 5 5 5 6 6 6 6 6 6 6 5 5 5 5 5
2 2 2 3 4 4 6 7 7 7 6 5 4 3 5 6 6 5 5 6 5 4 4 6 6 6 6 5 6 5 6 6 5 6 5 5 5 5 5 5 5 5 5 4 6 5 6 6 6 6 5 6 6 6 6 6 6 6 6 6 6 5 5
0 4 6 8 8 7 5 6 6 5 4 3 6 7 7 6 6 7 6 5 5 6 5 4 6 5 5 5 5 6 6 6 5 6 7 7 6 6 6 6 6 5 5 5 6 5 6 6 5 5 6 6 6 6 6 6 7 7 6 6 6 5 4
2 5 7 8 7 5 6 7 6 6 7 7 6 6 7 6 6 6 5 5 4 5 4 4 5 5 5 5 6 6 6 6 7 8 8 8 7 8 8 6 6 6 6 6 6 6 6 6 6 6 6 6 6 6 6 6 7 7 7 7 5 5 5
5 7 6 6 5 6 6 6 6 6 1 2 4 5 5 4 4 5 5 5 5 7 6 6 6 6 6 6 6 7 7 8 8 9 9 8 8 9 8 7 6 6 6 6 6 7 7 6 6 5 6 5 6 6 7 7 6 7 7 8 7 6 6
4 5 6 6 7 6 5 7 7 3 1 4 5 4 4 5 5 5 5 5 6 5 6 6 5 6 6 7 8 9 9 10 9 9 8 7 7 8 7 7 7 6 7 6 7 6 6 6 6 5 5 6 6 7 7 6 7 7 8 8 8 7 6
4 4 5 6 6 5 6 6 2 1 2 4 4 4 5 4 4 4 4 5 4 5 5 6 6 7 7 7 8 8 9 8 8 8 7 7 7 8 7 7 7 7 7 6 6 7 6 6 6 6 6 6 6 6 7 7 8 8 8 8 8 8 7
3 3 4 5 4 3 4 4 3 2 3 3 4 4 4 4 4 4 5 6 6 5 5 6 7 7 7 8 8 7 7 7 7 7 7 7 7 7 7 8 8 7 7 7 6 6 7 7 7 7 5 5 6 7 7 7 7 7 8 8 8 7 7
5 4 3 3 3 4 4 2 3 3 4 5 4 5 5 5 5 5 5 6 6 6 6 6 7 7 6 6 6 6 6 5 5 6 6 6 6 6 7 7 7 6 7 7 7 7 7 7 7 6 5 5 6 6 6 7 7 8 8 8 8 8 8
4 3 3 3 3 4 4 3 3 4 4 4 6 7 6 6 6 6 6 6 5 6 6 5 6 6 6 6 6 6 6 6 5 5 6 6 6 6 7 6 6 6 6 6 7 7 7 7 7 7 6 7 8 8 7 8 8 8 9 9 8 8 7
4 2 1 2 2 3 3 4 5 5 5 6 7 7 6 6 5 5 5 5 5 6 5 6 6 6 5 4 4 4 4 5 4 5 5 6 7 7 7 7 7 7 6 6 7 7 6 7 7 7 7 8 8 8 8 9 8 16 22 19 12 8 8
3 1 1 3 3 4 5 5 5 6 7 6 6 5 5 5 5 5 5 4 5 5 4 5 5 4 4 3 3 4 4 4 4 4 5 5 5 5 6 6 6 6 6 6 6 7 6 6 8 7 8 8 8 9 8 8 11 22 20 20 22 13 8
4 3 3 5 6 6 6 7 7 7 6 6 5 4 4 4 4 4 4 4 4 3 3 4 4 5 5 3 3 4 4 4 4 4 5 4 5 4 5 5 6 6 6 6 7 6 6 7 7 6 5 6 7 8 8 8 17 20 21 21 20 18 10
6 5 6 6 7 7 7 6 6 5 5 4 3 4 4 4 4 4 4 5 4 4 5 4 4 4 5 5 4 5 5 4 4 4 5 5 5 4 5 5 6 7 7 7 7 6 7 7 7 6 6 7 7 8 8 8 18 19 21 20 19 20 15
6 5 5 6 6 7 6 5 5 4 4 4 4 4 3 4 4 4 4 4 4 5 4 5 5 4 4 5 5 5 5 4 4 5 5 5 5 5 5 6 7 6 6 6 7 7 7 8 9 7 6 6 6 6 7 9 16 19 21 21 20 19 15
5 4 7 7 7 6 6 6 5 4 5 4 4 4 5 5 4 4 5 4 5 4 5 5 5 5 4 5 5 5 5 5 4 5 5 5 5 6 6 6 7 7 7 7 7 7 8 7 8 8 7 6 6 5 6 8 16 18 21 21 19 18 14
4 6 7 6 8 6 6 5 5 6 5 3 5 6 6 5 4 6 4 4 5 5 5 5 5 5 4 5 5 6 5 4 4 5 5 5 5 6 6 6 7 7 6 7 7 6 6 7 6 7 6 5 5 5 4 7 15 17 20 20 19 17 8
6 5 5 4 6 5 4 5 7 6 5 6 7 7 5 4 5 5 4 4 4 5 5 4 4 4 4 5 5 5 5 4 4 4 5 5 5 5 5 5 6 5 5 6 6 6 6 6 5 5 6 8 7 5 5 3 12 16 16 18 20 14 7
9 7 6 7 6 6 6 8 8 6 7 6 6 5 4 4 4 5 4 3 4 4 4 4 5 5 4 5 5 5 5 4 3 3 4 4 4 4 4 4 3 4 3 4 4 5 5 4 4 4 4 4 4 6 6 6 9 14 14 15 19 16 8
9 8 7 6 5 7 8 7 7 6 6 6 6 5 4 4 4 4 3 3 4 4 4 5 5 5 5 5 5 5 4 4 3 3 3 4 4 4 3 3 3 2 3 3 3 3 3 4 4 3 2 3 3 11 7 3 8 11 11 15 16 14 8
8 9 9 10 9 9 9 7 7 6 6 5 4 4 4 4 4 3 3 3 3 4 4 5 5 5 5 5 5 5 5 4 3 3 3 4 3 3 3 2 2 3 4 3 3 3 3 3 4 4 3 3 3 5 6 5 5 10 12 14 14 17 11
8 8 9 9 9 9 8 6 6 5 4 3 3 4 4 3 3 3 3 2 3 4 3 4 4 4 4 5 5 5 5 4 4 3 3 3 3 2 2 2 3 3 3 3 3 3 4 4 4 5 5 5 4 5 6 7 7 8 13 12 14 16 15
8 9 8 7 9 7 7 6 5 4 3 2 3 3 3 2 1 2 3 3 2 4 4 4 4 4 4 5 4 5 4 4 4 2 4 3 3 3 2 2 2 2 2 2 3 3 4 4 4 5 5 5 5 5 5 7 12 7 12 13 14 14 17
8 7 7 7 5 4 6 5 4 4 4 3 2 1 1 1 1 3 2 2 2 3 4 4 4 4 4 4 4 4 5 5 5 3 2 2 1 2 1 0 1 2 2 2 3 3 4 4 4 4 5 5 5 5 5 5 6 13 10 12 13 14 14
6 7 7 5 5 5 5 5 4 4 3 2 1 1 1 1 2 3 2 2 4 3 3 2 4 4 4 3 4 4 5 5 6 4 2 0 1 1 1 1 0 1 1 2 2 3 4 5 5 5 4 5 6 6 6 5 5 8 12 10 13 13 15
7 7 6 6 5 4 4 5 4 3 1 2 3 3 2 2 2 3 3 3 3 3 2 3 4 3 4 3 3 4 4 4 4 3 2 1 0 0 1 2 1 1 2 2 2 3 3 5 3 5 5 5 5 6 6 6 6 5 8 12 11 12 14
4 4 4 5 5 4 4 4 3 4 3 2 3 4 2 3 1 3 2 3 3 2 1 2 3 3 3 3 3 4 3 3 2 2 3 3 3 2 2 2 1 1 0 1 2 2 3 3 3 3 4 4 5 6 6 6 6 6 6 7 9 8 12
5 5 6 6 4 4 4 4 2 1 1 1 2 3 3 3 2 2 4 3 3 2 1 4 3 3 3 3 3 4 3 2 1 3 3 4 3 3 2 2 2 0 0 0 1 2 1 2 2 3 3 4 5 5 6 6 6 6 6 6 6 6 6
6 4 4 5 4 4 4 3 3 1 1 0 2 3 3 4 4 2 2 3 2 1 3 4 3 2 2 3 3 3 3 3 4 3 4 4 3 4 6 5 2 1 1 1 1 2 2 0 2 3 3 5 5 5 6 6 6 6 6 7 6 6 6
7 7 6 5 4 4 5 4 2 2 2 0 1 2 4 4 4 3 2 1 1 1 4 4 2 2 2 2 3 3 2 3 3 4 5 5 5 5 3 3 5 2 2 3 3 3 4 3 2 3 3 2 4 4 6 6 6 7 8 8 7 3 5
6 7 6 5 4 4 3 2 4 2 2 0 1 1 3 3 3 2 1 1 1 2 4 3 1 1 2 2 2 3 3 3 5 4 4 4 4 4 5 6 6 2 1 2 4 7 6 5 3 3 2 4 4 2 3 6 7 11 14 12 11 8 8
6 5 5 5 5 3 2 3 4 2 1 1 1 1 1 2 2 1 0 1 1 3 4 3 1 1 2 2 2 2 2 3 4 5 4 3 3 2 3 5 6 5 3 5 3 6 6 5 8 7 6 2 4 7 8 9 9 10 12 12 9 7 7
4 7 7 5 6 4 4 3 2 2 1 0 0 2 2 1 2 1 1 1 1 3 4 2 1 2 3 2 1 1 2 3 3 4 3 3 3 2 1 2 4 6 7 4 4 7 7 8 7 9 9 7 4 4 7 11 13 14 13 10 7 7 6
Wind_Direction
31 38 4 13 13 28 35 10 13 6 57 105 105 104 103 103 107 104 111 112 105 86 52 54 42 31 29 23 17 15 28 38 34 32 24 8 2 8 1 346 2 359 351 350 337 330 319 339 348 349 353 347 346 344 340 341 338 329 308 272 266 261 261
27 19 15 36 34 33 52 24 3 351 17 107 102 106 108 111 117 121 126 127 126 119 95 66 52 41 36 27 24 17 26 35 31 25 26 13 3 1 3 345 349 355 350 346 347 337 341 343 351 348 348 345 338 334 332 328 330 326 321 304 286 287 284
37 44 39 37 39 4 33 22 331 359 169 114 111 114 123 132 141 144 141 122 105 77 58 50 47 41 32 29 28 7 8 24 23 19 23 10 359 357 357 2 346 343 336 349 352 344 346 351 344 343 346 343 335 332 325 323 323 322 318 313 300 291 297
43 78 87 85 89 12 30 359 340 309 141 129 126 123 125 140 153 146 134 131 112 82 61 30 36 32 30 25 22 9 5 9 12 10 7 4 358 359 8 3 358 351 348 344 337 343 343 347 337 337 339 338 332 327 327 327 323 324 320 321 313 303 298
5 97 86 66 62 7 5 358 315 307 66 51 60 65 67 46 30 26 33 75 109 102 80 42 37 31 25 28 21 18 8 13 10 11 7 360 1 12 17 3 357 350 341 341 338 348 345 341 333 331 331 330 329 329 329 331 332 332 333 329 321 316 310
330 60 91 107 56 38 350 17 54 74 77 75 66 64 53 52 46 41 32 57 59 75 62 43 36 28 25 13 20 9 8 12 14 13 10 0 8 10 8 357 354 347 345 336 333 338 334 335 333 332 331 327 327 330 330 333 332 330 330 333 325 318 323
208 181 139 76 67 70 75 83 75 67 74 82 86 77 58 46 46 38 49 66 76 78 54 44 30 28 17 13 11 10 9 9 13 5 1 6 8 10 358 352 352 342 333 336 340 330 333 332 329 330 333 330 331 331 325 329 329 326 324 330 329 327 324
170 88 79 90 90 84 64 61 54 52 44 63 61 54 51 39 42 41 47 60 61 55 47 43 29 26 10 8 7 10 7 7 6 1 6 8 2 2 355 351 348 337 339 341 326 329 327 326 324 325 332 336 334 332 326 328 329 327 332 330 331 334 337
66 79 82 81 87 90 86 75 62 46 36 33 44 54 48 34 38 44 47 48 52 60 44 40 29 19 13 10 14 13 10 10 6 5 7 5 1 357 351 347 346 343 341 336 329 325 324 322 321 322 326 332 330 331 331 333 334 335 337 335 332 336 342
99 88 85 91 95 86 76 72 57 44 5 54 49 49 47 45 53 55 46 41 39 37 30 25 22 15 13 14 21 20 19 15 12 15 10 10 2 359 349 343 342 337 340 335 330 331 326 323 324 323 326 325 331 335 341 351 357 358 1 351 341 346 346
95 100 101 92 76 63 70 70 56 36 346 40 32 28 43 55 57 53 42 36 35 29 23 24 18 20 22 25 28 24 20 16 15 12 7 8 2 355 347 342 338 337 337 333 334 332 331 330 328 328 326 332 341 352 360 6 7 6 1 353 348 348 346
109 105 109 111 107 103 85 77 102 250 40 45 43 50 57 58 52 49 42 33 32 30 27 26 27 31 34 33 34 28 22 13 10 2 356 358 358 351 346 342 340 336 333 334 332 329 332 331 331 333 337 348 5 14 19 17 13 7 1 353 347 342 339
116 107 104 106 113 116 95 130 173 153 74 65 64 63 62 62 52 47 39 34 28 30 36 33 41 38 37 34 34 25 16 7 359 355 353 353 352 348 347 345 341 339 339 336 337 336 339 339 338 341 354 13 29 36 27 21 18 10 1 351 345 338 333
130 119 128 120 130 127 130 120 85 77 68 65 62 57 52 44 47 43 42 39 33 35 36 36 45 42 36 34 34 22 9 357 345 352 347 349 345 344 344 343 342 343 342 344 347 347 346 347 349 349 8 30 42 36 30 20 18 12 5 355 342 339 331
122 124 122 103 98 92 84 76 68 71 73 62 57 54 44 40 34 33 37 40 39 41 42 46 49 40 33 31 25 12 2 351 349 349 346 347 346 347 345 342 341 344 348 352 353 353 353 358 2 9 22 47 46 37 27 24 16 15 8 359 348 344 336
111 85 75 127 115 97 85 75 78 85 75 60 59 54 46 38 33 32 42 40 39 43 39 51 45 38 31 28 13 353 346 342 342 341 339 347 345 343 341 342 344 351 352 357 357 0 3 9 14 24 44 58 47 40 34 26 19 14 12 8 1 357 352
118 142 115 116 88 81 91 90 80 72 67 64 62 60 52 42 35 37 43 42 43 44 42 58 46 36 28 13 356 346 338 342 340 336 343 336 334 334 340 341 343 350 353 354 0 5 8 14 24 41 53 54 50 43 35 27 17 15 13 8 3 1 359
157 167 132 110 108 100 86 78 78 77 73 68 63 57 51 44 42 49 46 43 41 37 52 52 46 33 13 353 335 352 347 347 336 337 340 340 339 337 340 343 348 356 356 358 3 7 10 24 33 45 56 57 55 48 39 31 21 18 15 8 3 359 357
158 145 128 121 108 100 98 99 101 103 98 96 80 61 41 46 51 46 44 52 35 40 37 33 27 24 13 358 346 343 345 348 342 333 342 348 345 347 354 357 1 1 1 6 3 9 18 18 30 50 62 53 54 50 37 33 23 24 18 10 4 360 357
146 139 124 115 118 118 118 110 107 108 107 96 76 62 50 46 57 53 55 56 44 40 29 26 8 6 359 355 352 343 338 339 343 339 346 353 356 2 7 8 9 3 3 12 15 22 21 21 24 33 67 61 56 50 37 28 24 24 20 14 6 5 4
142 125 124 126 124 126 127 127 124 108 85 76 73 58 50 44 40 53 45 40 41 30 28 13 9 358 347 346 341 344 338 340 343 344 358 1 6 12 16 14 16 16 17 20 20 20 21 17 26 28 54 63 54 58 43 28 26 24 20 13 6 7 5
135 125 131 142 136 137 141 143 127 105 90 70 59 48 48 40 34 46 36 33 39 24 18 11 3 347 338 338 337 337 336 341 339 348 4 11 14 24 19 23 25 24 22 27 20 18 18 17 23 29 29 53 51 41 35 25 28 27 20 9 1 6 1
113 109 116 120 127 139 132 107 93 86 75 61 51 47 35 25 33 36 37 32 19 22 5 2 351 332 325 329 331 333 335 337 335 355 15 16 26 27 28 32 29 25 25 30 25 18 19 18 16 28 35 31 26 21 0 345 27 29 21 9 360 2 357
80 81 90 103 107 111 99 90 86 75 73 63 48 35 34 33 36 39 34 18 12 12 349 349 327 315 318 320 328 330 331 326 331 12 25 32 32 31 35 38 33 29 16 32 23 21 6 13 9 22 40 41 15 22 11 346 14 27 19 11 359 0 354
87 80 76 77 92 97 90 90 88 83 69 62 49 18 24 27 41 41 22 356 1 0 350 335 316 318 317 315 321 325 325 313 327 35 41 47 36 33 39 34 38 17 12 16 21 17 352 15 8 356 13 29 22 18 9 333 4 22 23 10 358 356 345
96 88 88 89 81 91 100 99 92 80 79 74 53 31 41 40 46 27 360 347 6 2 340 318 306 305 299 320 330 328 322 318 346 39 62 65 52 42 31 11 20 14 21 12 11 4 349 354 0 359 349 351 14 359 351 355 1 12 18 7 355 353 354
90 90 96 95 93 95 96 101 111 119 120 129 97 61 57 62 47 11 336 5 16 334 296 289 301 314 323 339 347 339 332 327 7 58 80 79 87 68 38 8 9 15 22 16 359 4 357 1 360 1 353 355 5 5 354 3 10 4 10 4 355 349 353
89 79 81 96 102 101 105 110 109 108 108 134 87 67 78 79 14 309 319 356 304 274 269 291 308 320 349 359 349 338 342 339 354 51 100 88 89 82 50 1 3 11 24 360 10 10 10 359 360 359 357 1 4 7 354 353 6 3 4 0 353 349 346
90 91 93 94 90 99 106 100 97 94 87 63 77 116 104 102 284 288 325 359 285 271 287 296 304 334 1 4 351 341 348 355 10 24 92 107 104 130 129 314 7 356 10 13 8 17 10 3 356 360 2 3 358 354 344 340 342 358 359 354 351 348 345
103 96 90 93 113 117 102 98 95 97 97 127 181 233 221 152 248 274 306 309 277 277 311 313 300 352 19 4 340 342 5 5 27 35 41 114 141 157 160 220 237 7 8 19 24 18 14 352 356 357 4 6 350 344 337 331 340 341 351 349 349 349 347
120 120 122 114 105 107 110 129 140 140 152 202 227 243 262 239 203 264 290 276 270 266 296 336 343 359 30 352 334 5 13 16 28 19 23 341 264 224 223 235 229 53 342 18 11 27 23 351 350 359 349 358 348 330 329 329 333 336 338 347 348 350 349
123 138 119 104 95 101 122 136 154 161 179 265 272 279 284 307 201 230 246 268 273 274 286 34 5 18 41 349 347 9 21 38 357 340 328 337 353 335 270 230 236 152 233 13 13 18 35 350 341 350 349 352 336 330 323 325 331 331 332 343 349 352 348
161 147 130 125 136 123 127 131 134 160 169 214 284 295 304 301 298 226 254 276 315 316 359 46 28 29 30 350 343 1 24 8 304 337 330 332 336 329 326 300 249 112 198 215 56 28 55 353 331 330 335 347 327 325 323 326 329 330 333 341 342 348 346
154 133 147 145 151 137 125 139 173 184 119 101 287 299 324 319 319 307 324 314 338 1 50 46 48 72 20 355 360 355 355 340 323 344 330 327 339 345 337 337 303 203 208 211 215 117 73 251 296 310 318 318 319 319 326 326 329 334 347 330 341 338 344
163 161 156 150 155 135 150 177 178 161 115 2 299 323 346 346 332 331 3 335 356 15 67 67 62 64 15 358 6 353 337 343 323 301 305 325 341 337 289 277 316 309 268 251 170 155 157 202 247 294 281 256 292 315 318 330 332 330 335 325 324 342 353
163 155 161 157 149 149 154 173 191 172 118 261 281 323 351 349 332 342 105 132 64 80 89 93 68 21 332 351 7 337 342 341 327 320 319 332 334 326 326 341 11 244 223 246 149 135 162 197 213 244 268 316 288 241 285 303 311 313 324 325 328 354 9
129 155 153 159 138 140 169 204 195 175 142 159 309 339 341 338 306 331 220 166 143 112 118 131 148 277 303 354 360 343 336 331 326 324 312 327 327 315 330 332 342 352 273 257 148 146 164 231 254 269 277 260 298 307 307 301 310 326 319 324 324 13 14
109 155 162 146 153 173 187 174 176 181 178 239 246 324 332 350 301 289 267 232 168 115 126 152 170 296 317 316 311 344 327 324 328 319 316 322 314 320 324 346 350 339 352 352 131 163 180 208 241 270 285 286 273 290 313 329 335 338 321 304 343 358 12